Location: Antin
(43.3330°N, 0.2804°E)
Time: 18:22:39
(UTC+00:00)

SME Rocket - Pass Details

Date: 14 December 2023
Orbit: 550 x 2645 km, 99.9° (Epoch: 20 February)

Event Time Altitude Azimuth Distance (km) Brightness Sun altitude
Rises 18:00:37 0° 144° (SE) 3,658 6.8 -16.9°
Reaches altitude 10° 18:02:43 10° 140° (SE) 2,913 6.2 -17.3°
Maximum altitude 18:09:17 57° 63° (ENE) 1,660 4.8 -18.5°
Drops below altitude 10° 18:19:23 10° 350° (N) 4,427 7.4 -20.2°
Sets 18:23:16 0° 347° (NNW) 5,704 8.0 -20.9°
